{"data":{"norad_id":61870,"intl_designator":"2024-203B","name":"2024-203B","alt_names":[],"object_type":"PAYLOAD","status":"ACTIVE","operator":null,"country":"PRC","launch_date":"2024-11-09","launch_site_code":"JSC","launch_vehicle":null,"mission":null,"orbit_class":"UNKNOWN","rcs_meters":null,"size_class":null,"mass_kg":null,"dimensions":null,"purposes":[],"wikipedia_slug":null,"has_3d_model":false,"image_url":null,"decayed_at":null,"tle_current":{"epoch":"2026-05-25T04:36:25.608384Z","epoch_age_seconds":61641,"freshness":"FRESH","line1":"1 61870U 24203B   26145.19196306  .00014369  00000+0  50268-3 0  9992","line2":"2 61870  97.4185 215.5502 0012249  54.7097 305.5287 15.29560114 85454","mean_motion":15.29560114,"eccentricity":0.0012249,"inclination_deg":97.4185,"raan_deg":215.5502,"arg_perigee_deg":54.7097,"mean_anomaly_deg":305.5287,"bstar":0.00050268,"rev_number":8545,"period_min":94.144714341054,"perigee_km":468.72930767557,"apogee_km":485.52333175621,"semimajor_km":6855.2633197159,"source":"CELESTRAK","updated_at":"2026-05-25T13:38:02.594620Z"}}}